AKST,Max TemperatureF,Mean TemperatureF,Min TemperatureF,Max Dew PointF,MeanDew PointF,Min DewpointF,Max Humidity, Mean Humidity, Min Humidity, Max Sea Level PressureIn, Mean Sea Level PressureIn, Min Sea Level PressureIn, Max VisibilityMiles, Mean VisibilityMiles, Min VisibilityMiles, Max Wind SpeedMPH, Mean Wind SpeedMPH, Max Gust SpeedMPH,PrecipitationIn, CloudCover, Events, WindDirDegrees
2011-12-1,30,27,24,29,24,19,100,85,64,29.91,29.73,29.50,10,8,1,34,9,44,0.02,6,Rain-Snow,173
2011-12-2,36,28,21,34,29,19,100,96,85,30.24,30.02,29.88,10,6,1,18,5,,0.06,6,Rain-Snow,192
2011-12-3,34,29,24,34,27,23,100,95,89,30.24,30.12,29.84,10,8,2,17,12,,0.28,8,Rain-Snow,11
2011-12-4,41,37,32,39,33,23,100,89,66,29.92,29.73,29.56,10,8,2,32,12,40,0.55,5,Rain,187
2011-12-5,32,31,30,29,21,16,88,67,54,30.39,30.20,29.96,10,10,10,23,17,33,0.00,1,,222
2011-12-6,32,26,19,29,23,18,96,87,78,30.46,30.42,30.38,10,10,10,14,10,22,0.00,2,,152
2011-12-7,30,26,23,29,26,21,100,92,79,30.38,30.06,29.86,10,5,1,21,12,23,0.01,8,Snow,7
2011-12-8,30,29,28,28,28,26,100,97,88,29.85,29.80,29.77,10,6,0,17,9,,0.07,8,Fog-Rain-Snow,27
2011-12-9,30,22,15,30,24,14,100,97,92,30.10,29.92,29.79,10,3,0,7,1,,0.01,5,Fog,47
2011-12-10,36,23,10,31,19,9,100,93,79,30.13,29.94,29.56,10,5,0,17,5,,0.01,7,Fog-Snow,29
2011-12-11,37,34,30,32,31,30,100,96,75,29.68,29.21,28.74,10,5,0,26,14,31,0.32,7,Fog-Snow,21
2011-12-12,35,27,19,34,24,17,100,84,59,29.74,29.43,28.92,10,7,0,16,8,23,0.02,6,Fog-Snow,260
2011-12-13,19,8,-2,18,7,-6,100,91,83,29.79,29.75,29.71,10,5,0,13,3,,0.00,3,Fog,28
2011-12-14,21,18,14,19,16,12,96,91,84,29.76,29.70,29.55,10,9,2,20,9,,0.00,6,Snow,35
2011-12-15,32,26,19,30,23,18,100,88,80,29.53,29.27,29.16,10,8,0,24,16,,0.03,6,Fog-Snow,57
2011-12-16,30,27,24,26,24,21,96,90,85,29.46,29.42,29.40,10,10,10,8,5,,0.00,5,,59
2011-12-17,35,31,27,30,28,24,92,88,82,29.52,29.46,29.34,10,10,9,9,5,,0.01,7,Snow,51
2011-12-18,37,35,33,34,32,26,100,88,72,29.29,28.93,28.75,10,9,2,37,19,51,0.12,7,Rain-Snow,116
2011-12-19,34,30,26,30,26,20,100,87,64,29.56,29.49,29.28,10,6,0,29,12,38,0.04,6,Fog-Snow,104
2011-12-20,37,31,25,34,28,21,100,89,78,29.76,29.56,29.34,10,8,0,22,9,32,0.06,5,Fog-Rain-Snow,142
2011-12-21,34,22,10,29,19,9,96,80,61,29.68,29.61,29.39,10,10,10,32,18,46,0.00,1,,155
2011-12-22,24,18,15,19,16,14,100,91,69,29.59,29.27,29.05,10,10,10,10,4,,0.00,5,,43
2011-12-23,21,8,-6,13,1,-10,96,85,66,29.60,29.43,29.11,10,10,10,8,3,,0.00,1,,23
2011-12-24,10,-1,-11,7,-5,-15,92,86,79,29.62,29.48,29.26,10,10,10,5,3,,0.00,3,,32
2011-12-25,18,7,-4,16,8,-6,95,85,67,29.53,29.31,29.17,10,6,1,18,8,24,0.01,7,Snow,161
2011-12-26,19,14,8,11,8,5,92,81,54,29.50,29.21,28.94,10,10,8,22,13,25,0.00,5,,26
2011-12-27,17,9,1,12,6,0,92,80,67,29.26,29.14,28.94,10,9,6,24,11,29,0.00,7,Snow,173
2011-12-28,10,0,-11,7,1,-16,92,86,79,29.21,29.15,29.11,10,10,8,4,0,,0.00,7,,46
2011-12-29,7,-4,-14,3,-3,-19,92,83,77,29.40,29.34,29.19,10,9,2,17,4,,0.00,7,Snow,36
2011-12-30,6,4,0,3,1,-4,92,85,72,29.65,29.43,29.34,10,6,2,10,4,,0.00,8,Snow,56
2011-12-31,3,-3,-9,-1,-7,-12,92,87,83,29.99,29.90,29.68,10,10,6,7,4,,0.00,6,Snow,22